User: anonymous   Login
Location: Deuil
(48.9767°N, 2.3272°E)
Time: 05:24:23
(UTC+00:00)
Language:

Cosmos 1892 - Orbit

View from above orbital plane
View from above orbital plane
View from above satellite
View from above satellite

Ground track
Ground track

The orbit data is extracted from the following two-line orbital elements,

1 18421U 87088A   22017.59431500  .00002879  00000-0  13893-3 0  9999
2 18421  82.4985  59.9987 0013829 207.4859 152.5645 15.18210821872384
Epoch (UTC): 17 January 2022 14:15:48
Eccentricity: 0.0013829
inclination: 82.4985°
perigee height: 502 km
apogee height: 521 km
right ascension of ascending node: 59.9987°
argument of perigee: 207.4859°
revolutions per day: 15.18210821
mean anomaly at epoch: 152.5645°
orbit number at epoch: 87238

The dashed part of the orbit path shows where the satellite is in the earth's shadow,  

DLR